Regional Weather Roundup
Issued by NWS

Home | Current Version | Previous Version | Graphics & Text | Print | Product List | Glossary On
Versions: 1 2 3 4 5 6 7 8 9 10 11 12 13 14 15 16 17 18 19 20 21 22 23 24 25 26 27 28 29 30 31 32 33 34 35 36 37 38 39 40 41 42 43 44 45 46 47 48 49 50
629
ASUS43 KOAX 271610
RWRNE

WEATHER ROUNDUP FOR NEBRASKA
NATIONAL WEATHER SERVICE OMAHA NE
1100 AM CDT TUE SEP 27 2016

NOTES: SATELLITE DATA IS BEING USED TO AUGMENT CLOUD COVER ABOVE
       12000 FEET.
       "FAIR" INDICATES FEW OR NO CLOUDS BELOW 12,000 FEET WITH NO
       SIGNIFICANT WEATHER AND/OR OBSTRUCTIONS TO VISIBILITY.

  * THESE STATIONS DO NOT REPORT WEATHER SUCH AS RAIN...SNOW OR FOG.

NEZ001>004-019>022-054>056-271700-
NEBRASKA PANHANDLE

CITY           SKY/WX    TMP DP  RH WIND       PRES   REMARKS
SCOTTSBLUFF    SUNNY     60  45  57 NW7       30.17F
ALLIANCE       SUNNY     65  45  48 W7        30.14F
CHADRON        SUNNY     64  46  52 SW12      30.11F
KIMBALL        SUNNY     67  44  44 NW9       30.21F
SIDNEY         SUNNY     68  44  42 W8        30.19S
$$

NEZ057>060-069>072-079>082-271700-
SOUTHWEST NEBRASKA

CITY           SKY/WX    TMP DP  RH WIND       PRES   REMARKS
NORTH PLATTE   SUNNY     64  46  52 W5        30.12F
IMPERIAL       SUNNY     67  42  40 W7        30.16S
LEXINGTON      SUNNY     67  47  48 W7        30.11F
MCCOOK         SUNNY     65  46  50 W8        30.14S HAZE
OGALLALA       SUNNY     66  46  48 CALM      30.14F
$$

NEZ005>010-023>029-035>040-094-271700-
NORTH CENTRAL NEBRASKA

CITY           SKY/WX    TMP DP  RH WIND       PRES   REMARKS
VALENTINE      SUNNY     67  40  37 SW13      30.07F
AINSWORTH      SUNNY     68  44  42 W7        30.08F
BROKEN BOW     SUNNY     71  43  36 W8        30.09F
O`NEILL        SUNNY     68  42  38 W8        30.06F
ORD            SUNNY     67  46  47 N5        30.06F
THEDFORD       SUNNY     71  43  36 W8        30.10F
$$

NEZ041-046>049-061>064-073>077-083>087-271700-
SOUTH CENTRAL NEBRASKA

CITY           SKY/WX    TMP DP  RH WIND       PRES   REMARKS
GRAND ISLAND   SUNNY     67  44  43 N6        30.08F
AURORA         SUNNY     67  45  45 NW8       30.07F
HASTINGS       SUNNY     69  44  40 NW12      30.09F
HEBRON         SUNNY     70  47  44 N7        30.06F
HOLDREGE       SUNNY     70  41  34 N3        30.10S
KEARNEY *      SUNNY     70  43  37 NW6       30.08F
YORK           SUNNY     66  46  48 CALM      30.07S
$$

NEZ011>018-030>034-042>045-271700-
NORTHEAST NEBRASKA

CITY           SKY/WX    TMP DP  RH WIND       PRES   REMARKS
NORFOLK        SUNNY     66  42  41 NW9       30.04F
ALBION         SUNNY     67  44  42 W7        30.05F
BLAIR          SUNNY     67  44  43 W5        30.03S
FREMONT        SUNNY     67  44  44 NW5       30.04S
TEKAMAH        SUNNY     69  41  36 NW7       30.02F
WAYNE          SUNNY     67  44  42 W8        30.03F
$$

NEZ050>053-065>068-078-088>093-271700-
SOUTHEAST NEBRASKA

CITY           SKY/WX    TMP DP  RH WIND       PRES   REMARKS
LINCOLN        SUNNY     68  46  45 CALM      30.05F
OMAHA EPPLEY   SUNNY     68  47  46 CALM      30.02F
BEATRICE       SUNNY     67  50  53 NW6       30.04F
FALLS CITY     SUNNY     66  51  58 CALM      30.03S
NEBRASKA CITY  SUNNY     68  20  16 N5        30.04R
PLATTSMOUTH    SUNNY     68  38  33 N3        30.03S
$$

NEZ044-045-051>053-067-271700-
OMAHA AREA

CITY           SKY/WX    TMP DP  RH WIND       PRES   REMARKS
OMAHA EPPLEY   SUNNY     68  47  46 CALM      30.02F
BLAIR          SUNNY     67  44  43 W5        30.03S
FREMONT        SUNNY     67  44  44 NW5       30.04S
MILLARD        SUNNY     68  48  49 NW3       30.03S
OFFUTT AFB     SUNNY     67  48  50 NW7       30.02S
PLATTSMOUTH    SUNNY     68  38  33 N3        30.03S
WAHOO          FAIR      69  37  30 NW7       30.04S
$$




USA.gov is the U.S. government's official web portal to all federal, state and local government web resources and services.